Zurück zum Katalog

DELTA 1 DEB

AktivSSO
NORAD 10711·DEBRIS·🇺🇸 United States

Gestartet Jul 29, 1976 von Vandenberg Space Force Base

Loading…

Nächste Überflüge (nächste 24 Stunden)

TLE

AktuellSource: Space-Track

Epoche: Sep 14, 2026, 06:17 UTC

1 10711U 76077AG  26257.26182024 -.00000051  00000-0 -40953-4 0  9997
2 10711 102.5016 242.3481 0063264 277.9048 211.3953 12.29247745249674

Verfolge DELTA 1 DEB in Echtzeit mit AllMySat

Download on the App Store